Tracking 20093 objects as of 14-Dec-2019
HD Live streaming from Space Station
objects crossing your sky now

FENGYUN 1C DEB

Track FENGYUN 1C DEB now!
10-day predictions


NORAD ID: 31611
Int'l Code: 1999-025BZR
Perigee: 702.5 km
Apogee: 863.1 km
Inclination: 99.0 °
Period: 100.4 minutes
Semi major axis: 7153 km
RCS: 0.0063 m2 (small)
Launch date: May 10, 1999
Source: People's Republic of China (PRC)
Launch site: Taiyaun Space Center, China (TSC)

Note: This is SATELLITE DEBRIS
aabbcc
Your satellite tracking list
Your tracking list is empty




NASA's NSSDC Master Catalog

Two Line Element Set (TLE):
1 31611U 99025BZR 19346.88831065 +.00001147 +00000-0 +39318-3 0  9999
2 31611 098.9790 128.8963 0112253 239.1334 273.0325 14.34818134355442
Source of the keplerian elements: AFSPC